User: anonymous   Login
Location: Fort Wayne
(41.1310°N, 85.1290°W)
Time: 17:08:20
(UTC-04:00)
Language:

ISS - Orbit

View from above orbital plane
View from above orbital plane
View from above satellite
View from above satellite

Ground track
Ground track

The orbit data is extracted from the following two-line orbital elements,

1 25544U 98067A   15144.58364734  .00007653  00000-0  11821-3 0  9992
2 25544 051.6435 201.8836 0003724 337.9047 173.2469 15.55172911944368
Epoch (UTC): 24 May 2015 14:00:27
Eccentricity: 0.0003724
inclination: 51.6435°
perigee height: 399 km
apogee height: 404 km
right ascension of ascending node: 201.8836°
argument of perigee: 337.9047°
revolutions per day: 15.55172911
mean anomaly at epoch: 173.2469°
orbit number at epoch: 94436

The dashed part of the orbit path shows where the satellite is in the earth's shadow,  

DLR